[[{"header":{"parameterUnit":"m.s-1","parameterCategory":1,"la1":30.2991,"la2":30.254,"lo1":-89.0895,"lo2":-89.0444,"dy":0.0017,"dx":0.0017,"nx":28,"ny":28,"refTime":"2025-12-01T09:00:00:Z","depth":0,"parameterNumber":2,"parameterNumberName":"U-component_of_WINDS"},"data":[0,0,0,0,0,0,0,0,0,0,0,0,0,0,0,0,0,0,0,0,0,0,0,0,0,0,0,0,0,0,0,0,0,0,0,0,0,0,0,0,0,0,0,0,0,0,0,0,0,0,0,0,0,0,0,0,0,0,-3.3283,-3.3284,0,-3.3333,-3.3334,-3.3334,-3.3257,-3.3254,-3.3252,-3.3249,-3.3299,-3.3303,-3.3307,0,0,0,0,0,0,0,0,0,0,0,0,0,-3.312,-3.3124,-3.3283,-3.3284,-3.3285,-3.3333,-3.3334,-3.3334,-3.3258,-3.3254,-3.3251,-3.3248,-3.3298,-3.3303,-3.3307,0,0,0,0,0,0,0,0,0,0,0,0,0,-3.3183,-3.3125,-3.3283,-3.3252,-3.325,-3.3333,-3.3334,-3.3335,-3.3258,-3.3254,-3.325,-3.3246,-3.3297,-3.3302,-3.3308,-3.3423,0,0,-3.3325,-3.3328,0,0,0,0,0,0,0,0,-3.3179,-3.3189,-3.3256,-3.3254,-3.3252,-3.3285,-3.3294,-3.3364,-3.3259,-3.3255,-3.3249,-3.3245,-3.3298,-3.3303,-3.3321,-3.3426,-3.3428,-3.3326,-3.3329,-3.3332,-3.3333,0,0,0,0,0,0,0,-3.3175,-3.3186,-3.3303,-3.3257,-3.3255,-3.3235,-3.324,-3.3307,-3.3298,-3.3255,-3.325,-3.3257,-3.3296,-3.3316,-3.3322,-3.3429,-3.3326,-3.3331,-3.3334,-3.3337,-3.363,-3.3634,0,0,0,0,0,0,-3.3175,-3.3183,-3.3301,-3.3304,-3.3205,-3.3241,-3.3246,-3.3278,-3.3297,-3.3296,-3.326,-3.3253,-3.3308,-3.3315,-3.3323,-3.346,-3.3332,-3.3337,-3.334,-3.3626,-3.3631,-3.3636,0,0,0,0,0,0,-3.3172,-3.3186,-3.3299,-3.3242,-3.3255,-3.3248,-3.3285,-3.3281,-3.3301,-3.3301,-3.3299,-3.3282,-3.3305,-3.3315,-3.3399,-3.3461,-3.334,-3.3345,-3.3621,-3.3627,-3.3633,-3.3734,0,0,0,0,0,0,-3.3167,-3.3185,-3.323,-3.3244,-3.3259,-3.3375,-3.3289,-3.3285,-3.3312,-3.3303,-3.3321,-3.3321,-3.3303,-3.3391,-3.3405,-3.3466,-3.3349,-3.3615,-3.3624,-3.3631,-3.3726,-3.3744,-3.3759,0,0,0,0,0,-3.3162,-3.3256,-3.3232,-3.3247,-3.3314,-3.3379,-3.3387,-3.3365,-3.3317,-3.3361,-3.3361,-3.332,-3.3451,-3.34,-3.3415,-3.3479,-3.3611,-3.3621,-3.3631,-3.3718,-3.374,-3.3759,0,0,0,0,0,0,-3.3249,-3.3257,-3.3231,-3.3333,-3.3356,-3.3366,-3.3421,-3.3389,-3.3426,-3.3416,-3.3387,-3.3391,-3.3482,-3.3488,-3.3431,-3.3592,-3.3523,-3.3536,-3.3584,-3.3605,-3.3622,-3.3619,-3.3354,0,0,0,0,0,-3.328,-3.3332,-3.3337,-3.3426,-3.3439,-3.3428,-3.3456,-3.3437,-3.3459,-3.3468,-3.3474,-3.3497,-3.3543,-3.3574,-3.3617,-3.3726,-3.3728,-3.3777,-3.3794,-3.3807,-3.382,-3.3877,-3.3899,-3.3668,-3.3668,-3.3668,0,0,-3.3345,-3.3356,-3.3391,-3.3444,-3.3459,-3.3514,-3.3437,-3.3498,-3.3538,-3.3477,-3.3557,-3.3562,-3.3585,-3.3682,-3.3725,-3.3691,-3.3884,-3.382,-3.3831,-3.3836,-3.389,-3.3912,-3.3931,-3.3674,-3.3673,-3.3672,0,0,-3.3491,-3.3505,-3.3581,-3.3598,-3.3622,-3.3614,-3.3633,-3.3647,-3.3648,-3.3728,-3.3683,-3.373,-3.3811,-3.3829,-3.3849,-3.4002,-3.3966,-3.4017,-3.4104,-3.4161,-3.4179,-3.4195,-3.425,-3.427,-3.4028,-3.4029,-3.4029,0,-3.3569,-3.365,-3.3624,-3.3688,-3.3713,-3.366,-3.3737,-3.3754,-3.3791,-3.3809,-3.377,-3.387,-3.3882,-3.3983,-3.402,-3.4038,-3.4057,-3.4015,-3.4179,-3.4195,-3.4209,-3.4261,-3.4282,-3.4035,-3.4034,-3.4033,-3.4033,0,-3.3744,-3.3801,-3.3859,-3.3897,-3.3927,-3.3998,-3.3982,-3.4016,-3.3994,-3.399,-3.4072,-3.4084,-3.4129,-3.4151,-3.413,-3.4248,-3.4226,-3.4184,-3.4114,-3.4238,-3.4286,-3.4306,-3.4043,-3.4041,-3.4039,-3.4038,0,0,-3.3948,-3.397,-3.3992,-3.4008,-3.4031,-3.4074,-3.4141,-3.4185,-3.4215,-3.4242,-3.4297,-3.4366,-3.4327,-3.435,-3.433,-3.438,-3.45,-3.4331,-3.4331,-3.4362,-3.4632,-3.4665,-3.4688,-3.4476,-3.448,-3.4483,-3.463,0,-3.4094,-3.4211,-3.4189,-3.4303,-3.4356,-3.4306,-3.4364,-3.4384,-3.4382,-3.4426,-3.4423,-3.4472,-3.4416,-3.443,-3.4477,-3.4476,-3.4554,-3.4465,-3.4528,-3.453,-3.4525,-3.4713,-3.4748,-3.4887,-3.4649,-3.4652,-3.4654,0,-3.4281,-3.4315,-3.4435,-3.4449,-3.447,-3.4523,-3.4561,-3.4603,-3.4624,-3.4619,-3.4645,-3.4615,-3.4682,-3.4611,-3.4702,-3.4641,-3.4665,-3.4669,-3.4674,-3.468,-3.4601,-3.4725,-3.4931,-3.4952,-3.4684,-3.4681,-3.4679,0,-3.4418,-3.4494,-3.4575,-3.4591,-3.4609,-3.4648,-3.4657,-3.4674,-3.4702,-3.4735,-3.4752,-3.4792,-3.4814,-3.4846,-3.4828,-3.4778,-3.4922,-3.4849,-3.492,-3.4921,-3.4953,-3.4952,-3.5167,-3.4968,-3.4968,-3.4967,-3.4967,0,-3.4584,-3.466,-3.4637,-3.4688,-3.477,-3.4744,-3.4826,-3.4829,-3.4845,-3.4895,-3.4853,-3.4901,-3.4874,-3.4919,-3.4905,-3.4982,-3.4993,-3.499,-3.4986,-3.4995,-3.4995,-3.5011,-3.5001,-3.4973,-3.4971,-3.497,-3.4969,0,-3.4753,-3.4741,-3.4826,-3.4837,-3.4841,-3.4901,-3.491,-3.4956,-3.495,-3.5014,-3.5027,-3.5018,-3.5069,-3.5054,-3.5108,-3.5099,-3.5198,-3.518,-3.5191,-3.5187,-3.5258,-3.5252,-3.5492,-3.5522,-3.5303,-3.5305,-3.5307,0,-3.486,-3.4917,-3.4933,-3.4964,-3.4976,-3.5026,-3.5053,-3.5029,-3.506,-3.5088,-3.5131,-3.5178,-3.5215,-3.5298,-3.5296,-3.5337,-3.5321,-3.5402,-3.5327,-3.5334,-3.5323,-3.5321,-3.5326,-3.5418,-3.542,-3.5422,-3.5424,0,-3.5052,-3.5043,-3.5085,-3.5126,-3.516,-3.519,-3.5217,-3.5244,-3.5221,-3.5257,-3.5309,-3.5337,-3.5393,-3.544,-3.5478,-3.5486,-3.5452,-3.5448,-3.5466,-3.5476,-3.548,-3.548,-3.5233,-3.5442,-3.5441,-3.5439,-3.5438,-3.5438,-3.5194,-3.5242,-3.5261,-3.5309,-3.5326,-3.5352,-3.5396,-3.5396,-3.5439,-3.5482,-3.5465,-3.5524,-3.5543,-3.559,-3.5604,-3.5649,-3.5618,-3.5645,-3.5652,-3.5659,-3.5669,-3.5472,-3.5656,-3.5655,-3.5655,-3.5654,-3.5654,0,-3.5384,-3.5394,-3.5438,-3.5477,-3.5515,-3.5478,-3.5505,-3.5539,-3.5592,-3.5613,-3.565,-3.5709,-3.5754,-3.5755,-3.5797,-3.5834,-3.5819,-3.5846,-3.5843,-3.5846,-3.5694,-3.5674,-3.5857,-3.5857,-3.5857,-3.5857,-3.5857,-3.5857,-3.5488,-3.5568,-3.5561,-3.5649,-3.5657,-3.5716,-3.5734,-3.5757,-3.5774,-3.5842,-3.5879,-3.588,-3.5893,-3.5935,-3.5975,-3.5974,-3.5992,-3.6025,-3.6018,-3.5877,-3.5856,-3.5837,-3.5818,-3.6029,-3.6029,-3.6166,-3.6168,-3.6169]},{"header":{"parameterUnit":"m.s-1","parameterCategory":1,"la1":30.2991,"la2":30.254,"lo1":-89.0895,"lo2":-89.0444,"dy":0.0017,"dx":0.0017,"nx":28,"ny":28,"refTime":"2025-12-01T09:00:00:Z","depth":0,"parameterNumber":3,"parameterNumberName":"V-component_of_WINDS"},"data":[0,0,0,0,0,0,0,0,0,0,0,0,0,0,0,0,0,0,0,0,0,0,0,0,0,0,0,0,0,0,0,0,0,0,0,0,0,0,0,0,0,0,0,0,0,0,0,0,0,0,0,0,0,0,0,0,0,0,-6.5204,-6.5205,0,-6.5276,-6.5277,-6.5278,-6.5203,-6.52,-6.5197,-6.5194,-6.5263,-6.5267,-6.5271,0,0,0,0,0,0,0,0,0,0,0,0,0,-6.4994,-6.4999,-6.5204,-6.5205,-6.5206,-6.5276,-6.5277,-6.5278,-6.5203,-6.52,-6.5196,-6.5193,-6.5261,-6.5266,-6.5272,0,0,0,0,0,0,0,0,0,0,0,0,0,-6.5078,-6.5,-6.5203,-6.5177,-6.5175,-6.5276,-6.5277,-6.5278,-6.5204,-6.52,-6.5195,-6.5191,-6.5259,-6.5266,-6.5273,-6.5401,0,0,-6.5293,-6.5296,0,0,0,0,0,0,0,0,-6.5073,-6.5086,-6.518,-6.5179,-6.5177,-6.5226,-6.5228,-6.5319,-6.5205,-6.5193,-6.5194,-6.5189,-6.5254,-6.5261,-6.5283,-6.5404,-6.5407,-6.5294,-6.5298,-6.5301,-6.5303,0,0,0,0,0,0,0,-6.5068,-6.5082,-6.5232,-6.5181,-6.518,-6.5159,-6.5166,-6.5245,-6.5246,-6.5194,-6.5188,-6.5198,-6.5252,-6.5277,-6.5284,-6.5408,-6.5294,-6.53,-6.5304,-6.5307,-6.5637,-6.5642,0,0,0,0,0,0,-6.5066,-6.5078,-6.523,-6.5234,-6.5114,-6.5167,-6.5174,-6.5215,-6.5245,-6.5246,-6.5202,-6.5195,-6.5268,-6.5277,-6.5287,-6.5439,-6.5301,-6.5307,-6.5311,-6.5632,-6.5638,-6.5643,0,0,0,0,0,0,-6.5061,-6.508,-6.5227,-6.5155,-6.5172,-6.5175,-6.5221,-6.5218,-6.5243,-6.5252,-6.5251,-6.5228,-6.5265,-6.5277,-6.5373,-6.544,-6.531,-6.5316,-6.5627,-6.5634,-6.5641,-6.5745,0,0,0,0,0,0,-6.5056,-6.5079,-6.5129,-6.5156,-6.5176,-6.5315,-6.5225,-6.5223,-6.5256,-6.5247,-6.5276,-6.5276,-6.5262,-6.5364,-6.538,-6.5447,-6.5322,-6.5621,-6.563,-6.5638,-6.5735,-6.5754,-6.5771,0,0,0,0,0,-6.5048,-6.5154,-6.5132,-6.5151,-6.524,-6.5319,-6.533,-6.5313,-6.5262,-6.5311,-6.5317,-6.5275,-6.543,-6.5374,-6.5392,-6.5462,-6.5616,-6.5627,-6.5638,-6.5727,-6.5751,-6.577,0,0,0,0,0,0,-6.5133,-6.5158,-6.5133,-6.5252,-6.5284,-6.5306,-6.5368,-6.5338,-6.5384,-6.5374,-6.5349,-6.5356,-6.5458,-6.5469,-6.5407,-6.5587,-6.5515,-6.5529,-6.5577,-6.5599,-6.5616,-6.5611,-6.5327,0,0,0,0,0,-6.5166,-6.523,-6.5247,-6.535,-6.5368,-6.5366,-6.5399,-6.5384,-6.5415,-6.5428,-6.544,-6.5471,-6.5526,-6.5563,-6.5614,-6.5736,-6.5741,-6.5793,-6.5811,-6.5825,-6.5838,-6.5903,-6.5926,-6.5678,-6.5678,-6.5678,0,0,-6.5233,-6.5255,-6.5297,-6.5367,-6.5391,-6.5456,-6.5377,-6.545,-6.5497,-6.5438,-6.5531,-6.5541,-6.5573,-6.5683,-6.5731,-6.5695,-6.5908,-6.5839,-6.585,-6.5855,-6.5916,-6.5939,-6.596,-6.5685,-6.5684,-6.5683,0,0,-6.539,-6.5414,-6.5502,-6.5527,-6.5564,-6.5561,-6.5583,-6.561,-6.5615,-6.5707,-6.5664,-6.5719,-6.5815,-6.584,-6.5865,-6.6031,-6.5995,-6.6048,-6.6141,-6.6204,-6.6224,-6.6241,-6.63,-6.6321,-6.6061,-6.6061,-6.6062,0,-6.5469,-6.5568,-6.555,-6.5626,-6.5658,-6.5609,-6.5697,-6.5721,-6.5773,-6.5795,-6.5754,-6.5873,-6.5891,-6.6006,-6.6047,-6.6069,-6.6091,-6.6045,-6.6223,-6.624,-6.6255,-6.6311,-6.6333,-6.6068,-6.6067,-6.6066,-6.6066,0,-6.5663,-6.5732,-6.5798,-6.5851,-6.589,-6.5972,-6.5964,-6.6005,-6.5986,-6.5988,-6.6082,-6.6102,-6.6157,-6.6182,-6.6163,-6.6294,-6.6271,-6.6227,-6.6153,-6.6286,-6.6337,-6.6359,-6.6077,-6.6074,-6.6072,-6.6071,0,0,-6.5875,-6.5918,-6.5942,-6.5965,-6.6002,-6.6054,-6.6133,-6.6188,-6.6223,-6.626,-6.6324,-6.6406,-6.6366,-6.6395,-6.6378,-6.6434,-6.6563,-6.6382,-6.6383,-6.6415,-6.6707,-6.674,-6.6765,-6.6539,-6.6543,-6.6546,-6.6704,0,-6.6033,-6.6172,-6.6158,-6.6289,-6.6352,-6.6306,-6.6374,-6.6403,-6.6406,-6.6458,-6.646,-6.652,-6.6462,-6.6479,-6.6532,-6.6536,-6.6621,-6.6524,-6.6597,-6.66,-6.6591,-6.6793,-6.6828,-6.6976,-6.6725,-6.6728,-6.6731,0,-6.6236,-6.6282,-6.642,-6.6447,-6.6473,-6.6535,-6.6584,-6.6635,-6.6666,-6.6664,-6.6697,-6.667,-6.6747,-6.6672,-6.6776,-6.6711,-6.6739,-6.6746,-6.6751,-6.6757,-6.6673,-6.6804,-6.7023,-6.7045,-6.6762,-6.676,-6.6758,0,-6.6377,-6.6473,-6.6568,-6.6589,-6.6623,-6.6668,-6.6683,-6.671,-6.6744,-6.6786,-6.6808,-6.6858,-6.6885,-6.6923,-6.691,-6.6857,-6.7017,-6.6941,-6.7016,-6.7017,-6.7052,-6.705,-6.7279,-6.7071,-6.7071,-6.707,-6.707,0,-6.6554,-6.6641,-6.6632,-6.669,-6.6785,-6.6767,-6.686,-6.6869,-6.6894,-6.6952,-6.6914,-6.6969,-6.6948,-6.7001,-6.6991,-6.7079,-6.7091,-6.7091,-6.7087,-6.7094,-6.7094,-6.7112,-6.7102,-6.7076,-6.7075,-6.7074,-6.7073,0,-6.6728,-6.6726,-6.6826,-6.6851,-6.6859,-6.6928,-6.6947,-6.7001,-6.7001,-6.7075,-6.7091,-6.7091,-6.7151,-6.7142,-6.7208,-6.7201,-6.7311,-6.7294,-6.7301,-6.7297,-6.7373,-6.7366,-6.7622,-6.7654,-6.7425,-6.7428,-6.7429,0,-6.6842,-6.6907,-6.6939,-6.6977,-6.6996,-6.7056,-6.7091,-6.7075,-6.7112,-6.7153,-6.7201,-6.7259,-6.7304,-6.7402,-6.7406,-6.7457,-6.7441,-6.7527,-6.7448,-6.7453,-6.7442,-6.7438,-6.7444,-6.7543,-6.7545,-6.7547,-6.7549,0,-6.7044,-6.7039,-6.7092,-6.7146,-6.7189,-6.7229,-6.7265,-6.7297,-6.7284,-6.7327,-6.739,-6.7425,-6.7493,-6.755,-6.7597,-6.761,-6.7578,-6.7574,-6.7594,-6.7602,-6.7603,-6.7603,-6.7344,-6.7568,-6.7566,-6.7565,-6.7564,-6.7563,-6.719,-6.7247,-6.7278,-6.7338,-6.7364,-6.7399,-6.7451,-6.7458,-6.7511,-6.7567,-6.7553,-6.7623,-6.7651,-6.7711,-6.773,-6.7783,-6.7751,-6.778,-6.7788,-6.7795,-6.7804,-6.7595,-6.7792,-6.7791,-6.779,-6.779,-6.779,0,-6.739,-6.7408,-6.7464,-6.7517,-6.7564,-6.7531,-6.7568,-6.7609,-6.7672,-6.7702,-6.7748,-6.7819,-6.7874,-6.7883,-6.7934,-6.7975,-6.7961,-6.7989,-6.7986,-6.7989,-6.783,-6.7808,-6.8,-6.8,-6.7999,-6.7999,-6.7999,-6.7999,-6.75,-6.7593,-6.7592,-6.7697,-6.7714,-6.7784,-6.7809,-6.784,-6.7864,-6.7946,-6.7992,-6.7998,-6.8019,-6.8072,-6.812,-6.8121,-6.8141,-6.8175,-6.817,-6.8021,-6.8001,-6.7981,-6.7959,-6.818,-6.818,-6.8325,-6.8326,-6.8328]}]]